STARLINK-11190 [DTC]

Last updated on Tue Oct 01 2024 00:02:04 GMT+0000 (Coordinated Universal Time)

1 60911U 24154J 24273.81471936 .00031909 00000+0 19783-3 0 9992 2 60911 53.1594 204.8117 0001450 84.9082 275.2104 15.76773528 5894
UTC large
Height (km)
Speed (km/s)
/
Latitude / Longitude
Inclination (degrees)
Orbital Period (minutes)
Azimuth
Elevation
Range (km)
Doppler Factor

Next 0 passes for location: London (51.5072 / 0.1276)

Sorry there are no passes over London.